SCP
0 0 0 0 -0 -0 -0 -0 -0 -0 -0 -0 -0 -0 -0 0 0 0 0 0 0 -0 -0 -0 -0 -0 0 0 0 0 0 0
0 0 0 0 -0 -0 0 -0 -0 -0 -0 -0 -0 -0 0 0 -0 0 -0 -0 0 -0 -0 0 0 0 0 0 0 0 0 0
0 0 0 0 -0 -0 0 -0 -0 -0 -0 -0 0 -0 -0 -0 0 0 -0 -0 -0 0 0 0 0 0 0 0 0 0 0 0
0 0 0 -0 -0 -0 -0 0 0 0 0 0 -0 -0 -0 -0 -0 0 0 0 0 0 0 0 0 0 0 0 0 0 0 0
0 0 0 0 -0 -0 0 0 0 0 0 -0 -0 -0 -0 -0 -0 -0 0 0 0 0 0 0 1 1 1 1 1 1 0 0
0 0 0 0 -0 -0 -0 0 0 0 0 0 0 0 -0 -0 -0 0 0 0 0 0 0 0 0 1 1 1 0 0 1 1
0 -0 0 -0 -0 -0 -0 0 0 -0 0 0 -0 -0 -0 -0 -0 0 0 0 0 0 0 0 0 0 0 0 0 0 0 0
0 0 -0 0 -0 0 0 0 0 0 0 0 0 -0 0 0 0 0 0 0 0 0 0 0 0 0 0 0 0 0 0 0
0 -0 -0 0 0 -0 0 0 0 0 0 0 0 -0 0 0 0 0 0 0 0 0 0 0 0 0 0 0 0 0 0 0
0 0 0 0 0 0 0 0 0 0 -0 -0 -0 0 0 0 0 0 0 0 0 0 -0 -0 -0 -0 0 0 0 0 0 0
0 0 0 0 0 0 0 0 0 0 0 0 0 0 0 0 0 -0 -0 0 -0 0 -0 -0 0 0 0 0 0 0 0 0
0 0 0 0 0 0 0 0 0 0 0 0 0 0 0 -0 -0 -0 -0 0 -0 -0 -0 -0 -0 -0 -0 0 0 0 0 0
0 0 0 0 0 0 0 0 0 0 0 0 0 0 0 0 0 -0 -0 0 -0 0 -0 -0 -0 -0 -0 0 0 0 0 0
0 0 0 0 0 0 0 0 0 0 0 0 0 0 0 0 0 0 0 0 0 0 0 0 0 0 0 0 0 0 0 0
0 0 0 0 0 0 -0 -0 -0 -0 0 0 0 0 0 0 0 0 0 0 0 0 0 0 0 0 0 0 0 0 0 0
0 0 0 0 0 0 -0 -0 -0 -0 -0 -0 0 0 0 0 0 0 0 0 0 0 0 0 0 0 0 0 0 0 0 0
0 0 0 0 0 0 0 -0 -0 0 -0 0 0 0 0 0 0 0 0 0 0 0 0 0 0 0 0 0 0 0 0 0
0 0 0 0 0 0 0 -0 -0 -0 0 0 0 0 0 0 0 0 0 0 0 0 0 0 0 0 0 0 0 0 0 0
0 0 0 0 0 0 0 0 0 0 0 0 0 0 0 0 0 0 0 0 0 0 0 0 0 0 0 0 0 0 0 0
0 0 0 0 0 0 0 0 0 0 0 0 0 0 0 0 0 0 0 0 0 0 0 0 0 0 0 0 0 0 0 0
Wind_Speed_500mb
4 4 10 11 2 11 20 20 11 10 15 8 9 11 5 12 10 11 17 14 12 11 11 12 13 12 10 9 9 9 7 5
8 18 5 5 13 25 27 13 6 20 20 17 19 3 11 15 8 9 22 14 11 9 7 8 9 10 10 9 8 7 7 6
9 8 2 3 9 19 17 11 8 13 15 13 18 15 13 20 15 13 19 15 11 10 7 5 6 10 11 10 9 9 10 11
14 11 3 1 11 12 11 19 24 21 17 10 12 14 22 16 14 17 15 14 12 9 7 6 4 6 9 12 14 14 14 14
12 18 16 14 14 9 19 27 17 8 10 9 18 24 26 23 20 17 15 13 11 9 6 5 3 4 8 12 14 17 18 18
3 9 14 11 8 10 15 11 11 11 8 12 24 29 26 26 24 21 19 14 11 10 6 4 4 5 7 10 14 16 19 23
12 25 17 16 12 6 10 15 10 8 17 32 30 26 22 21 21 19 18 17 13 9 9 11 7 9 14 17 19 21 23 27
5 15 25 21 17 18 10 11 14 29 37 34 31 26 17 19 24 23 24 22 19 17 16 16 16 17 19 21 27 30 33 33
7 16 41 26 18 8 29 8 21 42 42 37 33 32 29 27 22 19 20 18 19 21 23 22 21 20 22 26 29 33 38 42
20 30 26 30 26 25 0 7 22 36 45 46 41 34 27 21 21 21 19 18 21 27 31 35 34 33 29 26 26 30 34 37
23 22 26 34 22 13 10 27 37 43 42 43 38 34 32 33 35 33 25 18 22 27 32 39 38 39 40 34 31 32 34 35
22 25 22 28 15 11 16 37 37 40 39 40 38 38 38 37 35 31 26 23 21 23 24 31 32 33 34 29 30 35 40 43
20 27 16 26 11 15 43 39 38 38 42 41 41 36 28 28 26 20 17 16 15 12 16 20 22 25 28 26 28 32 36 42
16 25 16 22 25 16 45 50 46 42 39 43 45 35 30 25 20 13 11 9 8 12 16 19 19 20 22 21 26 30 33 38
11 24 14 17 10 34 53 51 48 49 48 49 45 38 32 26 19 12 9 6 5 11 17 21 23 23 26 29 29 33 37 39
6 13 19 29 14 18 55 58 59 50 44 46 43 46 35 30 24 20 16 13 13 18 22 26 31 34 33 35 37 42 43 44
4 5 19 29 17 19 47 46 44 47 50 49 48 42 38 34 30 30 28 26 25 27 27 34 42 45 45 44 45 48 52 55
5 3 13 14 19 6 37 55 57 53 51 50 45 48 43 40 39 38 32 33 35 35 38 46 49 51 51 51 54 56 59 65
3 6 7 8 12 11 13 25 31 40 43 43 49 49 48 41 40 36 35 37 41 41 45 49 48 45 46 50 56 61 64 79
7 6 9 5 12 10 16 20 24 37 45 54 54 54 45 40 38 38 39 39 37 38 43 41 36 35 42 49 61 70 83 94
Wind_Direction_500mb
81 104 117 123 256 135 112 123 133 106 71 56 19 18 76 121 115 150 161 145 126 123 141 151 151 147 139 140 145 144 140 138
101 118 92 60 149 142 127 97 100 119 83 85 26 63 125 130 132 178 166 146 121 130 128 138 163 174 174 166 165 168 174 180
107 91 2 306 159 140 117 109 128 149 112 83 36 52 131 165 136 140 153 124 116 110 103 119 164 184 199 202 200 204 215 220
122 103 84 295 174 115 96 117 118 98 94 75 67 88 88 103 114 103 116 128 126 104 93 106 150 189 206 215 222 230 238 245
126 114 118 141 143 101 119 130 71 91 89 101 96 102 100 105 107 116 113 99 84 72 56 67 110 188 211 216 224 233 242 248
58 133 121 142 109 102 114 87 92 116 128 134 128 116 109 103 107 107 100 90 77 60 49 334 280 240 235 236 233 235 241 244
135 150 140 146 143 83 89 109 66 70 133 136 128 126 123 109 90 82 80 68 60 28 15 17 333 279 259 263 257 252 258 259
138 147 148 140 147 132 143 120 75 102 125 131 132 133 135 117 99 87 78 68 54 38 22 8 347 332 321 294 286 284 277 280
136 155 147 141 134 119 143 168 173 160 150 146 141 131 115 102 94 85 77 71 59 46 34 18 6 349 331 320 313 306 300 295
134 144 144 149 139 144 109 176 158 153 148 146 142 133 117 99 89 79 74 60 55 51 39 27 24 20 2 342 323 312 304 299
152 144 146 142 147 145 162 154 149 151 151 148 143 135 130 119 101 91 89 87 76 55 43 35 27 19 12 5 6 8 0 346
146 145 152 153 157 171 162 159 156 159 159 158 153 152 145 132 116 101 95 90 73 53 42 34 29 21 17 17 14 10 11 8
146 160 158 143 155 205 165 167 168 171 172 171 167 168 154 142 130 120 109 92 61 41 27 19 17 16 12 5 0 357 354 353
151 173 164 200 192 179 175 172 178 181 185 185 188 179 170 165 158 145 126 80 26 4 354 351 347 350 347 338 336 335 335 334
175 191 163 213 182 189 180 182 185 192 195 197 197 192 187 187 187 186 182 199 312 323 322 322 321 315 319 315 316 319 320 319
192 169 193 199 214 165 183 188 197 199 204 206 206 199 193 201 208 221 228 249 275 288 287 295 297 293 294 300 306 308 310 310
183 202 202 211 220 189 189 201 202 205 205 206 207 201 203 210 219 229 236 244 259 266 275 280 282 284 286 288 293 297 303 306
143 54 210 192 207 214 191 208 206 206 209 209 209 210 213 220 231 240 249 254 261 266 271 273 277 278 277 280 287 294 299 302
185 114 79 160 194 184 193 226 233 231 224 215 212 215 219 227 239 253 260 263 269 269 273 280 282 279 274 282 290 296 299 301
139 198 232 316 246 213 187 222 233 234 224 219 216 217 224 232 246 255 255 262 265 269 280 284 282 277 284 293 298 299 301 304
Wind_Speed_850mb
4 4 10 11 2 11 20 20 11 10 15 8 9 11 5 12 10 11 17 14 12 11 11 12 13 12 10 9 9 9 7 5
8 18 5 5 13 25 27 13 6 20 20 17 19 3 11 15 8 9 22 14 11 9 7 8 9 10 10 9 8 7 7 6
9 8 2 3 9 19 17 11 8 13 15 13 18 15 13 20 15 13 19 15 11 10 7 5 6 10 11 10 9 9 10 11
14 11 3 1 11 12 11 19 24 21 17 10 12 14 22 16 14 17 15 14 12 9 7 6 4 6 9 12 14 14 14 14
12 18 16 14 14 9 19 27 17 8 10 9 18 24 26 23 20 17 15 13 11 9 6 5 3 4 8 12 14 17 18 18
3 9 14 11 8 10 15 11 11 11 8 12 24 29 26 26 24 21 19 14 11 10 6 4 4 5 7 10 14 16 19 23
12 25 17 16 12 6 10 15 10 8 17 32 30 26 22 21 21 19 18 17 13 9 9 11 7 9 14 17 19 21 23 27
5 15 25 21 17 18 10 11 14 29 37 34 31 26 17 19 24 23 24 22 19 17 16 16 16 17 19 21 27 30 33 33
7 16 41 26 18 8 29 8 21 42 42 37 33 32 29 27 22 19 20 18 19 21 23 22 21 20 22 26 29 33 38 42
20 30 26 30 26 25 0 7 22 36 45 46 41 34 27 21 21 21 19 18 21 27 31 35 34 33 29 26 26 30 34 37
23 22 26 34 22 13 10 27 37 43 42 43 38 34 32 33 35 33 25 18 22 27 32 39 38 39 40 34 31 32 34 35
22 25 22 28 15 11 16 37 37 40 39 40 38 38 38 37 35 31 26 23 21 23 24 31 32 33 34 29 30 35 40 43
20 27 16 26 11 15 43 39 38 38 42 41 41 36 28 28 26 20 17 16 15 12 16 20 22 25 28 26 28 32 36 42
16 25 16 22 25 16 45 50 46 42 39 43 45 35 30 25 20 13 11 9 8 12 16 19 19 20 22 21 26 30 33 38
11 24 14 17 10 34 53 51 48 49 48 49 45 38 32 26 19 12 9 6 5 11 17 21 23 23 26 29 29 33 37 39
6 13 19 29 14 18 55 58 59 50 44 46 43 46 35 30 24 20 16 13 13 18 22 26 31 34 33 35 37 42 43 44
4 5 19 29 17 19 47 46 44 47 50 49 48 42 38 34 30 30 28 26 25 27 27 34 42 45 45 44 45 48 52 55
5 3 13 14 19 6 37 55 57 53 51 50 45 48 43 40 39 38 32 33 35 35 38 46 49 51 51 51 54 56 59 65
3 6 7 8 12 11 13 25 31 40 43 43 49 49 48 41 40 36 35 37 41 41 45 49 48 45 46 50 56 61 64 79
7 6 9 5 12 10 16 20 24 37 45 54 54 54 45 40 38 38 39 39 37 38 43 41 36 35 42 49 61 70 83 94
Wind_Direction_850mb
81 104 117 123 256 135 112 123 133 106 71 56 19 18 76 121 115 150 161 145 126 123 141 151 151 147 139 140 145 144 140 138
101 118 92 60 149 142 127 97 100 119 83 85 26 63 125 130 132 178 166 146 121 130 128 138 163 174 174 166 165 168 174 180
107 91 2 306 159 140 117 109 128 149 112 83 36 52 131 165 136 140 153 124 116 110 103 119 164 184 199 202 200 204 215 220
122 103 84 295 174 115 96 117 118 98 94 75 67 88 88 103 114 103 116 128 126 104 93 106 150 189 206 215 222 230 238 245
126 114 118 141 143 101 119 130 71 91 89 101 96 102 100 105 107 116 113 99 84 72 56 67 110 188 211 216 224 233 242 248
58 133 121 142 109 102 114 87 92 116 128 134 128 116 109 103 107 107 100 90 77 60 49 334 280 240 235 236 233 235 241 244
135 150 140 146 143 83 89 109 66 70 133 136 128 126 123 109 90 82 80 68 60 28 15 17 333 279 259 263 257 252 258 259
138 147 148 140 147 132 143 120 75 102 125 131 132 133 135 117 99 87 78 68 54 38 22 8 347 332 321 294 286 284 277 280
136 155 147 141 134 119 143 168 173 160 150 146 141 131 115 102 94 85 77 71 59 46 34 18 6 349 331 320 313 306 300 295
134 144 144 149 139 144 109 176 158 153 148 146 142 133 117 99 89 79 74 60 55 51 39 27 24 20 2 342 323 312 304 299
152 144 146 142 147 145 162 154 149 151 151 148 143 135 130 119 101 91 89 87 76 55 43 35 27 19 12 5 6 8 0 346
146 145 152 153 157 171 162 159 156 159 159 158 153 152 145 132 116 101 95 90 73 53 42 34 29 21 17 17 14 10 11 8
146 160 158 143 155 205 165 167 168 171 172 171 167 168 154 142 130 120 109 92 61 41 27 19 17 16 12 5 0 357 354 353
151 173 164 200 192 179 175 172 178 181 185 185 188 179 170 165 158 145 126 80 26 4 354 351 347 350 347 338 336 335 335 334
175 191 163 213 182 189 180 182 185 192 195 197 197 192 187 187 187 186 182 199 312 323 322 322 321 315 319 315 316 319 320 319
192 169 193 199 214 165 183 188 197 199 204 206 206 199 193 201 208 221 228 249 275 288 287 295 297 293 294 300 306 308 310 310
183 202 202 211 220 189 189 201 202 205 205 206 207 201 203 210 219 229 236 244 259 266 275 280 282 284 286 288 293 297 303 306
143 54 210 192 207 214 191 208 206 206 209 209 209 210 213 220 231 240 249 254 261 266 271 273 277 278 277 280 287 294 299 302
185 114 79 160 194 184 193 226 233 231 224 215 212 215 219 227 239 253 260 263 269 269 273 280 282 279 274 282 290 296 299 301
139 198 232 316 246 213 187 222 233 234 224 219 216 217 224 232 246 255 255 262 265 269 280 284 282 277 284 293 298 299 301 304